Bat Cave, NC

5:50 AM EST on February 07, 2016 (GMT -0500)
Asheville Regional

Weather History for KAVL - August, 2013

Change the Weather History Date:

Wednesday, August 7, 2013

  Actual Average Record
Temperature  
Mean Temperature 71 °F 74 °F  
Max Temperature 73 °F 84 °F 95 °F (1935)
Min Temperature 68 °F 64 °F 50 °F (2004)
Degree Days  
Heating Degree Days 0 0  
Month to date heating degree days 0 0  
Since 1 June heating degree days 0 14  
Since 1 July heating degree days 0 0  
Cooling Degree Days 6 9  
Month to date cooling degree days 55 63  
Year to date cooling degree days 578 573  
Since 1 June cooling degree days 527 515  
Growing Degree Days 21 (Base 50)    
Moisture  
Dew Point 69 °F    
Average Humidity 94    
Maximum Humidity 100    
Minimum Humidity 87    
Precipitation  
Precipitation 0.76 in 0.14 in 2.27 in (1978)
Month to date precipitation 1.33 0.99  
Year to date precipitation 53.11 28.20  
Snow  
Snow 0.00 in 0.00 in 0.00 in ()
Month to date snowfall 0.0 0.0  
Since 1 June snowfall 0.0 0.0  
Since 1 July snowfall 0.0 0.0  
Snow Depth 0.00 in    
Sea Level Pressure  
Sea Level Pressure 30.10 in    
Wind  
Wind Speed 4 mph (SSE)    
Max Wind Speed 14 mph    
Max Gust Speed 17 mph    
Visibility 6 miles    
Events Rain    
T = Trace of Precipitation, MM = Missing Value Source: NWS Daily Summary

Daily Weather History Graph

Daily Weather History Graph

Search for Another Location

Airport or City:

Trip Planner

Search our weather history database for the weather conditions in past years. The results will help you decide how hot, cold, wet, or windy it might be!

Date:

Astronomy

Aug. 07, 2013 Rise Set
Actual Time 6:43 AM EDT 8:27 PM EDT
Civil Twilight 6:15 AM EDT 8:55 PM EDT
Nautical Twilight 5:42 AM EDT 9:28 PM EDT
Astronomical Twilight 5:07 AM EDT 10:03 PM EDT
Moon 7:26 AM EDT 8:39 PM EDT
Length of Visible Light 14h 39m
Length of Day
13h 44m
New Moon, 1% of the Moon is Illuminated
Aug 7
New Moon
Aug 14
First Quarter
Aug 20
Full
Aug 28
Last Quarter
Sep 5
New

Hourly Weather History & Observations

Time (EDT) Temp. Dew Point Humidity Pressure Visibility Wind Dir Wind Speed Gust Speed Precip Events Conditions
12:54 AM 71.1 °F 68.0 °F 90% 30.04 in 10.0 mi SSE 4.6 mph - N/A   Overcast
1:46 AM 69.8 °F 68.0 °F 94% 30.11 in 8.0 mi SSE 5.8 mph - 0.00 in Rain Light Rain
1:54 AM 70.0 °F 68.0 °F 93% 30.02 in 9.0 mi SSE 3.5 mph - 0.00 in Rain Light Rain
2:15 AM 69.8 °F 68.0 °F 94% 30.11 in 9.0 mi Calm Calm - 0.00 in   Overcast
2:22 AM 69.8 °F 68.0 °F 94% 30.11 in 10.0 mi Calm Calm - 0.00 in   Overcast
2:54 AM 70.0 °F 68.0 °F 93% 30.01 in 10.0 mi ESE 3.5 mph - 0.00 in   Overcast
3:54 AM 70.0 °F 66.9 °F 90% 30.01 in 10.0 mi Calm Calm - N/A   Mostly Cloudy
4:01 AM 69.8 °F 66.2 °F 88% 30.09 in 10.0 mi ESE 3.5 mph - N/A   Mostly Cloudy
4:54 AM 70.0 °F 68.0 °F 93% 30.02 in 10.0 mi South 4.6 mph - N/A   Overcast
5:05 AM 69.8 °F 68.0 °F 94% 30.10 in 10.0 mi SSW 4.6 mph - N/A   Overcast
5:31 AM 69.8 °F 68.0 °F 94% 30.10 in 8.0 mi SSE 4.6 mph - N/A   Overcast
5:54 AM 70.0 °F 68.0 °F 93% 30.02 in 9.0 mi SSE 4.6 mph - N/A   Overcast
6:15 AM 69.8 °F 68.0 °F 94% 30.11 in 8.0 mi SSE 4.6 mph - N/A   Overcast
6:34 AM 69.8 °F 68.0 °F 94% 30.11 in 10.0 mi SE 3.5 mph - N/A   Mostly Cloudy
6:54 AM 70.0 °F 68.0 °F 93% 30.04 in 10.0 mi SSE 3.5 mph - N/A   Overcast
7:11 AM 69.8 °F 68.0 °F 94% 30.11 in 10.0 mi Calm Calm - N/A   Overcast
7:43 AM 71.6 °F 68.0 °F 88% 30.12 in 10.0 mi SSE 3.5 mph - N/A   Overcast
7:54 AM 71.1 °F 68.0 °F 90% 30.04 in 10.0 mi SSE 3.5 mph - N/A   Overcast
8:25 AM 71.6 °F 68.0 °F 88% 30.13 in 6.0 mi SE 4.6 mph - 0.00 in Rain Light Rain
8:38 AM 69.8 °F 69.8 °F 100% 30.13 in 2.5 mi SSE 5.8 mph - 0.01 in Rain Rain
8:54 AM 70.0 °F 69.1 °F 97% 30.06 in 8.0 mi SSE 4.6 mph - 0.04 in Rain Light Rain
9:54 AM 72.0 °F 68.0 °F 87% 30.06 in 10.0 mi SE 4.6 mph - N/A   Overcast
10:37 AM 71.6 °F 68.0 °F 88% 30.14 in 10.0 mi SE 4.6 mph - N/A   Overcast
10:54 AM 72.0 °F 68.0 °F 87% 30.07 in 10.0 mi SSE 5.8 mph - N/A   Overcast
11:29 AM 69.8 °F 69.8 °F 100% 30.15 in 2.5 mi SE 6.9 mph - 0.02 in Rain Rain
11:42 AM 69.8 °F 69.8 °F 100% 30.15 in 4.0 mi SE 4.6 mph - 0.07 in Rain Light Rain
11:54 AM 70.0 °F 69.1 °F 97% 30.08 in 2.5 mi SSE 6.9 mph - 0.12 in Rain Heavy Rain
11:58 AM 69.8 °F 69.8 °F 100% 30.16 in 3.0 mi South 9.2 mph - 0.01 in Rain Rain
12:25 PM 71.6 °F 69.8 °F 94% 30.15 in 8.0 mi SE 5.8 mph - 0.07 in Rain Light Rain
12:33 PM 71.6 °F 69.8 °F 94% 30.15 in 10.0 mi SSE 5.8 mph - 0.07 in Rain Light Rain
12:54 PM 72.0 °F 69.1 °F 91% 30.07 in 10.0 mi SE 5.8 mph - 0.07 in   Overcast
1:07 PM 71.6 °F 69.8 °F 94% 30.15 in 10.0 mi SE 6.9 mph - N/A   Overcast
1:47 PM 71.6 °F 69.8 °F 94% 30.15 in 10.0 mi South 8.1 mph - 0.00 in Rain Light Rain
1:54 PM 72.0 °F 70.0 °F 93% 30.08 in 2.5 mi South 11.5 mph - 0.04 in Rain Heavy Rain
1:57 PM 71.6 °F 69.8 °F 94% 30.15 in 1.8 mi South 12.7 mph - 0.02 in Rain Heavy Rain
2:01 PM 69.8 °F 69.8 °F 100% 30.15 in 1.2 mi South 10.4 mph - 0.07 in Rain Heavy Rain
2:08 PM 69.8 °F 68.0 °F 94% 30.15 in 1.5 mi SSE 8.1 mph - 0.16 in Rain Heavy Rain
2:10 PM 69.8 °F 68.0 °F 94% 30.15 in 1.5 mi South 6.9 mph - 0.17 in Rain Heavy Rain
2:19 PM 69.8 °F 68.0 °F 94% 30.15 in 2.0 mi SSE 8.1 mph - 0.22 in Rain Heavy Rain
2:43 PM 69.8 °F 69.8 °F 100% 30.14 in 4.0 mi SSE 4.6 mph - 0.34 in Rain Rain
2:54 PM 71.1 °F 69.1 °F 93% 30.07 in 6.0 mi South 6.9 mph - 0.36 in Rain Light Rain
3:04 PM 71.6 °F 69.8 °F 94% 30.14 in 2.5 mi SSE 5.8 mph - 0.00 in Rain Light Rain
3:54 PM 73.0 °F 70.0 °F 90% 30.05 in 2.5 mi South 5.8 mph - 0.02 in Rain Light Rain
4:01 PM 73.4 °F 69.8 °F 88% 30.12 in 6.0 mi SSW 5.8 mph - 0.01 in Rain Light Rain
4:28 PM 71.6 °F 69.8 °F 94% 30.12 in 3.0 mi South 4.6 mph - 0.03 in Rain Light Rain
4:37 PM 71.6 °F 69.8 °F 94% 30.12 in 7.0 mi South 5.8 mph - 0.04 in Rain Light Rain
4:54 PM 71.1 °F 69.1 °F 93% 30.05 in 7.0 mi SSW 4.6 mph - 0.04 in Rain Light Rain
5:02 PM 71.6 °F 69.8 °F 94% 30.12 in 5.0 mi SSW 6.9 mph - 0.01 in Rain Light Rain
5:15 PM 71.6 °F 69.8 °F 94% 30.12 in 5.0 mi SSW 5.8 mph - 0.02 in Rain Light Rain
5:31 PM 69.8 °F 69.8 °F 100% 30.12 in 2.5 mi South 4.6 mph - 0.04 in Rain Rain
5:41 PM 69.8 °F 69.8 °F 100% 30.12 in 4.0 mi South 3.5 mph - 0.06 in Rain Light Rain
5:44 PM 69.8 °F 69.8 °F 100% 30.11 in 2.5 mi South 4.6 mph - 0.06 in Rain Light Rain
5:54 PM 71.1 °F 69.1 °F 93% 30.04 in 2.5 mi South 4.6 mph - 0.06 in Rain Light Rain
6:17 PM 71.6 °F 69.8 °F 94% 30.11 in 2.5 mi SSE 4.6 mph - 0.01 in   Overcast
6:54 PM 71.1 °F 69.1 °F 93% 30.03 in 3.0 mi SSE 4.6 mph - 0.01 in   Overcast
7:54 PM 71.1 °F 69.1 °F 93% 30.04 in 5.0 mi SSE 3.5 mph - N/A   Overcast
8:01 PM 71.6 °F 69.8 °F 94% 30.11 in 8.0 mi SSE 4.6 mph - N/A   Overcast
8:19 PM 71.6 °F 69.8 °F 94% 30.11 in 7.0 mi Calm Calm - N/A   Overcast
8:27 PM 71.6 °F 69.8 °F 94% 30.11 in 7.0 mi Calm Calm - N/A   Mostly Cloudy
8:39 PM 71.6 °F 69.8 °F 94% 30.11 in 3.0 mi Calm Calm - N/A   Overcast
8:54 PM 71.1 °F 69.1 °F 93% 30.03 in 3.0 mi SSE 3.5 mph - N/A   Overcast
9:01 PM 71.6 °F 69.8 °F 94% 30.10 in 8.0 mi SSE 5.8 mph - N/A   Mostly Cloudy
9:11 PM 71.6 °F 69.8 °F 94% 30.10 in 3.0 mi SSE 4.6 mph - N/A   Overcast
9:54 PM 70.0 °F 69.1 °F 97% 30.04 in 3.0 mi SSE 4.6 mph - N/A   Overcast
10:47 PM 69.8 °F 68.0 °F 94% 30.13 in 10.0 mi SSE 3.5 mph - N/A   Overcast
10:54 PM 70.0 °F 68.0 °F 93% 30.06 in 10.0 mi South 4.6 mph - N/A   Overcast
11:26 PM 69.8 °F 68.0 °F 94% 30.13 in 10.0 mi SSE 3.5 mph - N/A   Mostly Cloudy
11:54 PM 69.1 °F 66.9 °F 93% 30.06 in 10.0 mi Calm Calm - N/A   Clear